| time (UTC) | temp F | wind direction | speed MPH | gust MPH | rain 1hr in | rain 24hr in | rain mn in | humidity % | barometer mb |
| 20260509070601 | 60 | 333 | 1.0 | 2.0 | 0.00 | 0.00 | 0.00 | 42 | 1007.4 |
| 20260509070039 | 61 | 333 | 1.0 | 3.0 | 0.00 | 0.00 | 0.00 | 41 | 1007.5 |
| 20260509065538 | 61 | 333 | 1.0 | 5.0 | 0.00 | 0.00 | 0.00 | 41 | 1007.5 |
| 20260509065036 | 61 | 333 | 1.0 | 5.0 | 0.00 | 0.00 | 0.00 | 41 | 1007.4 |
| 20260509064554 | 62 | 332 | 3.0 | 7.0 | 0.00 | 0.00 | 0.00 | 41 | 1007.6 |
| 20260509064111 | 62 | 330 | 2.0 | 7.0 | 0.00 | 0.00 | 0.00 | 40 | 1007.5 |
| 20260509063548 | 62 | 343 | 2.0 | 9.0 | 0.00 | 0.00 | 0.00 | 40 | 1007.5 |
| 20260509063047 | 63 | 346 | 4.0 | 9.0 | 0.00 | 0.00 | 0.00 | 40 | 1007.4 |
| 20260509062543 | 63 | 359 | 3.0 | 6.0 | 0.00 | 0.00 | 0.00 | 40 | 1007.4 |
| 20260509062040 | 63 | 335 | 2.0 | 6.0 | 0.00 | 0.00 | 0.00 | 39 | 1007.4 |
| 20260509061537 | 64 | 317 | 3.0 | 7.0 | 0.00 | 0.00 | 0.00 | 39 | 1007.5 |
| 20260509061034 | 64 | 356 | 3.0 | 7.0 | 0.00 | 0.00 | 0.00 | 39 | 1007.5 |
| 20260509060602 | 64 | 352 | 4.0 | 8.0 | 0.00 | 0.00 | 0.00 | 38 | 1007.4 |
| 20260509060042 | 64 | 338 | 4.0 | 8.0 | 0.00 | 0.00 | 0.00 | 38 | 1007.5 |
| 20260509055541 | 64 | 330 | 4.0 | 7.0 | 0.00 | 0.00 | 0.00 | 39 | 1007.4 |
| 20260509055039 | 64 | 351 | 3.0 | 8.0 | 0.00 | 0.00 | 0.00 | 39 | 1007.4 |
| 20260509054536 | 64 | 332 | 3.0 | 8.0 | 0.00 | 0.00 | 0.00 | 39 | 1007.4 |
| 20260509054038 | 64 | 321 | 4.0 | 6.0 | 0.00 | 0.00 | 0.00 | 39 | 1007.3 |
| 20260509053536 | 64 | 340 | 3.0 | 8.0 | 0.00 | 0.00 | 0.00 | 40 | 1007.3 |
| 20260509053034 | 63 | 338 | 3.0 | 6.0 | 0.00 | 0.00 | 0.00 | 40 | 1007.2 |
| 20260509052531 | 63 | 342 | 3.0 | 6.0 | 0.00 | 0.00 | 0.00 | 42 | 1007.2 |
| 20260509052047 | 62 | 333 | 1.0 | 3.0 | 0.00 | 0.00 | 0.00 | 43 | 1007.2 |
| 20260509051545 | 62 | 333 | 1.0 | 3.0 | 0.00 | 0.00 | 0.00 | 43 | 1007.1 |
| 20260509051043 | 63 | 333 | 1.0 | 3.0 | 0.00 | 0.00 | 0.00 | 46 | 1007.0 |
| 20260509050611 | 63 | 333 | 1.0 | 4.0 | 0.00 | 0.00 | 0.00 | 42 | 1007.0 |
| 20260509050109 | 63 | 332 | 1.0 | 6.0 | 0.00 | 0.00 | 0.00 | 41 | 1007.1 |
| 20260509045543 | 61 | 348 | 3.0 | 6.0 | 0.00 | 0.00 | 0.00 | 43 | 1007.1 |
| 20260509045038 | 60 | 352 | 2.0 | 5.0 | 0.00 | 0.00 | 0.00 | 48 | 1007.0 |
| 20260509044534 | 60 | 185 | 1.0 | 2.0 | 0.00 | 0.00 | 0.00 | 46 | 1007.0 |
| 20260509044049 | 61 | 185 | 0.0 | 2.0 | 0.00 | 0.00 | 0.00 | 46 | 1006.9 |
| 20260509043546 | 61 | 185 | 1.0 | 1.0 | 0.00 | 0.00 | 0.00 | 45 | 1006.9 |
| 20260509043043 | 61 | 185 | 0.0 | 1.0 | 0.00 | 0.00 | 0.00 | 45 | 1006.9 |
| 20260509042550 | 61 | 185 | 0.0 | 0.0 | 0.00 | 0.00 | 0.00 | 45 | 1006.9 |
| 20260509042046 | 62 | 185 | 0.0 | 0.0 | 0.00 | 0.00 | 0.00 | 45 | 1006.9 |
| 20260509041541 | 62 | 185 | 0.0 | 0.0 | 0.00 | 0.00 | 0.00 | 45 | 1006.9 |
| 20260509041037 | 62 | 185 | 0.0 | 0.0 | 0.00 | 0.00 | 0.00 | 44 | 1007.0 |
| 20260509040606 | 63 | 185 | 0.0 | 0.0 | 0.00 | 0.00 | 0.00 | 44 | 1007.0 |
| 20260509040043 | 63 | 185 | 0.0 | 0.0 | 0.00 | 0.00 | 0.00 | 43 | 1006.9 |
| 20260509035540 | 63 | 185 | 0.0 | 1.0 | 0.00 | 0.00 | 0.00 | 42 | 1006.9 |
| 20260509035038 | 63 | 185 | 1.0 | 1.0 | 0.00 | 0.00 | 0.00 | 42 | 1006.8 |
| 20260509034535 | 64 | 185 | 0.0 | 0.0 | 0.00 | 0.00 | 0.00 | 44 | 1006.8 |
| 20260509033538 | 64 | 185 | 0.0 | 1.0 | 0.00 | 0.00 | 0.00 | 44 | 1006.8 |
| 20260509033033 | 64 | 185 | 1.0 | 2.0 | 0.00 | 0.00 | 0.00 | 45 | 1006.8 |
| 20260509032548 | 64 | 185 | 0.0 | 2.0 | 0.00 | 0.00 | 0.00 | 45 | 1006.8 |
| 20260509032045 | 65 | 185 | 1.0 | 1.0 | 0.00 | 0.00 | 0.00 | 43 | 1006.7 |
| 20260509031542 | 65 | 185 | 0.0 | 1.0 | 0.00 | 0.00 | 0.00 | 43 | 1006.7 |
| 20260509031040 | 65 | 185 | 0.0 | 1.0 | 0.00 | 0.00 | 0.00 | 44 | 1006.7 |
| 20260509030609 | 65 | 185 | 0.0 | 1.0 | 0.00 | 0.00 | 0.00 | 43 | 1006.6 |
| 20260509030049 | 65 | 185 | 0.0 | 0.0 | 0.00 | 0.00 | 0.00 | 42 | 1006.5 |
| 20260509025606 | 65 | 185 | 0.0 | 0.0 | 0.00 | 0.00 | 0.00 | 42 | 1006.5 |
| 20260509025041 | 66 | 185 | 0.0 | 1.0 | 0.00 | 0.00 | 0.00 | 42 | 1006.4 |
| 20260509024537 | 66 | 185 | 0.0 | 1.0 | 0.00 | 0.00 | 0.00 | 42 | 1006.3 |
| 20260509024037 | 66 | 185 | 0.0 | 2.0 | 0.00 | 0.00 | 0.00 | 41 | 1006.4 |
| 20260509023535 | 67 | 185 | 1.0 | 2.0 | 0.00 | 0.00 | 0.00 | 40 | 1006.3 |
| 20260509023035 | 67 | 185 | 1.0 | 2.0 | 0.00 | 0.00 | 0.00 | 40 | 1006.2 |
| 20260509022533 | 67 | 185 | 1.0 | 2.0 | 0.00 | 0.00 | 0.00 | 38 | 1006.2 |
| 20260509022031 | 68 | 185 | 1.0 | 1.0 | 0.00 | 0.00 | 0.00 | 37 | 1006.1 |
| 20260509021611 | 68 | 185 | 1.0 | 1.0 | 0.00 | 0.00 | 0.00 | 36 | 1005.9 |
| 20260509021046 | 68 | 185 | 0.0 | 1.0 | 0.00 | 0.00 | 0.00 | 35 | 1005.9 |
| 20260509020552 | 69 | 185 | 1.0 | 1.0 | 0.00 | 0.00 | 0.00 | 34 | 1005.9 |
| 20260509020033 | 69 | 185 | 0.0 | 1.0 | 0.00 | 0.00 | 0.00 | 34 | 1005.8 |
| 20260509015531 | 69 | 185 | 0.0 | 1.0 | 0.00 | 0.00 | 0.00 | 34 | 1005.8 |
| 20260509015050 | 69 | 185 | 0.0 | 0.0 | 0.00 | 0.00 | 0.00 | 34 | 1005.7 |
| 20260509014548 | 70 | 185 | 0.0 | 2.0 | 0.00 | 0.00 | 0.00 | 35 | 1005.7 |
| 20260509014047 | 70 | 185 | 1.0 | 2.0 | 0.00 | 0.00 | 0.00 | 35 | 1005.6 |
| 20260509013545 | 70 | 185 | 0.0 | 2.0 | 0.00 | 0.00 | 0.00 | 35 | 1005.6 |
| 20260509013043 | 70 | 185 | 1.0 | 2.0 | 0.00 | 0.00 | 0.00 | 35 | 1005.6 |
| 20260509012540 | 70 | 185 | 1.0 | 2.0 | 0.00 | 0.00 | 0.00 | 36 | 1005.4 |
| 20260509012039 | 71 | 189 | 0.0 | 1.0 | 0.00 | 0.00 | 0.00 | 36 | 1005.5 |
| 20260509011537 | 71 | 189 | 1.0 | 1.0 | 0.00 | 0.00 | 0.00 | 36 | 1005.4 |
| 20260509011037 | 72 | 189 | 0.0 | 2.0 | 0.00 | 0.00 | 0.00 | 36 | 1005.4 |
| 20260509010605 | 72 | 189 | 0.0 | 2.0 | 0.00 | 0.00 | 0.00 | 36 | 1005.3 |
| 20260509010045 | 73 | 189 | 1.0 | 3.0 | 0.00 | 0.00 | 0.00 | 35 | 1005.3 |
| 20260509005545 | 73 | 189 | 1.0 | 4.0 | 0.00 | 0.00 | 0.00 | 35 | 1005.3 |
| 20260509005043 | 73 | 188 | 2.0 | 6.0 | 0.00 | 0.00 | 0.00 | 35 | 1005.2 |
| 20260509004541 | 73 | 188 | 4.0 | 6.0 | 0.00 | 0.00 | 0.00 | 34 | 1005.2 |
| 20260509004038 | 73 | 183 | 3.0 | 4.0 | 0.00 | 0.00 | 0.00 | 34 | 1005.2 |
| 20260509003556 | 73 | 180 | 2.0 | 4.0 | 0.00 | 0.00 | 0.00 | 35 | 1005.2 |
| 20260509003032 | 73 | 180 | 2.0 | 4.0 | 0.00 | 0.00 | 0.00 | 34 | 1005.2 |
| 20260509002531 | 73 | 173 | 2.0 | 7.0 | 0.00 | 0.00 | 0.00 | 34 | 1005.2 |
| 20260509002049 | 73 | 167 | 3.0 | 8.0 | 0.00 | 0.00 | 0.00 | 34 | 1005.2 |
| 20260509001546 | 73 | 191 | 4.0 | 8.0 | 0.00 | 0.00 | 0.00 | 35 | 1005.2 |
| 20260509001044 | 73 | 186 | 2.0 | 6.0 | 0.00 | 0.00 | 0.00 | 35 | 1005.1 |
| 20260509000550 | 73 | 197 | 4.0 | 6.0 | 0.00 | 0.00 | 0.00 | 35 | 1005.2 |
| 20260508235610 | 73 | 200 | 3.0 | 7.0 | 0.00 | 0.00 | 0.00 | 35 | 1005.2 |
| 20260508235046 | 74 | 191 | 4.0 | 9.0 | 0.00 | 0.00 | 0.00 | 34 | 1005.2 |
| 20260508234545 | 73 | 341 | 4.0 | 10.0 | 0.00 | 0.00 | 0.00 | 33 | 1005.3 |
| 20260508234047 | 74 | 146 | 6.0 | 10.0 | 0.00 | 0.00 | 0.00 | 35 | 1005.3 |
| 20260508233545 | 74 | 132 | 4.0 | 8.0 | 0.00 | 0.00 | 0.00 | 33 | 1005.3 |
| 20260508233042 | 74 | 229 | 4.0 | 8.0 | 0.00 | 0.00 | 0.00 | 33 | 1005.5 |
| 20260508232541 | 74 | 225 | 4.0 | 9.0 | 0.00 | 0.00 | 0.00 | 32 | 1005.5 |
| 20260508232037 | 74 | 139 | 4.0 | 9.0 | 0.00 | 0.00 | 0.00 | 32 | 1005.5 |
| 20260508231535 | 75 | 186 | 3.0 | 8.0 | 0.00 | 0.00 | 0.00 | 32 | 1005.4 |
| 20260508231032 | 75 | 224 | 4.0 | 8.0 | 0.00 | 0.00 | 0.00 | 31 | 1005.4 |
| 20260508230601 | 75 | 167 | 4.0 | 8.0 | 0.00 | 0.00 | 0.00 | 31 | 1005.5 |
| 20260508230040 | 75 | 231 | 5.0 | 8.0 | 0.00 | 0.00 | 0.00 | 32 | 1005.4 |
| 20260508225538 | 75 | 245 | 2.0 | 7.0 | 0.00 | 0.00 | 0.00 | 31 | 1005.5 |
| 20260508225036 | 76 | 250 | 4.0 | 7.0 | 0.00 | 0.00 | 0.00 | 31 | 1005.6 |
| 20260508224535 | 76 | 234 | 2.0 | 8.0 | 0.00 | 0.00 | 0.00 | 32 | 1005.6 |
| 20260508224033 | 76 | 218 | 4.0 | 8.0 | 0.00 | 0.00 | 0.00 | 32 | 1005.7 |
| 20260508223550 | 76 | 259 | 2.0 | 10.0 | 0.00 | 0.00 | 0.00 | 30 | 1005.7 |
| 20260508223032 | 77 | 233 | 6.0 | 11.0 | 0.00 | 0.00 | 0.00 | 30 | 1005.7 |
| 20260508222608 | 77 | 212 | 4.0 | 12.0 | 0.00 | 0.00 | 0.00 | 29 | 1005.7 |
| 20260508222048 | 78 | 206 | 5.0 | 12.0 | 0.00 | 0.00 | 0.00 | 30 | 1005.7 |
| 20260508221544 | 78 | 212 | 6.0 | 9.0 | 0.00 | 0.00 | 0.00 | 30 | 1005.7 |
| 20260508221039 | 77 | 223 | 3.0 | 12.0 | 0.00 | 0.00 | 0.00 | 29 | 1005.7 |
| 20260508220606 | 77 | 197 | 6.0 | 15.0 | 0.00 | 0.00 | 0.00 | 28 | 1005.8 |
| 20260508220042 | 77 | 214 | 4.0 | 15.0 | 0.00 | 0.00 | 0.00 | 28 | 1005.7 |
| 20260508215539 | 77 | 269 | 4.0 | 7.0 | 0.00 | 0.00 | 0.00 | 29 | 1005.8 |
| 20260508215035 | 77 | 288 | 3.0 | 7.0 | 0.00 | 0.00 | 0.00 | 29 | 1005.8 |
| 20260508214549 | 77 | 248 | 5.0 | 9.0 | 0.00 | 0.00 | 0.00 | 29 | 1005.9 |
| 20260508214043 | 77 | 266 | 4.0 | 12.0 | 0.00 | 0.00 | 0.00 | 30 | 1005.9 |
| 20260508213539 | 77 | 225 | 5.0 | 12.0 | 0.00 | 0.00 | 0.00 | 29 | 1006.0 |
| 20260508213034 | 78 | 255 | 4.0 | 10.0 | 0.00 | 0.00 | 0.00 | 30 | 1006.0 |
| 20260508212550 | 77 | 224 | 3.0 | 10.0 | 0.00 | 0.00 | 0.00 | 30 | 1006.0 |
| 20260508212045 | 76 | 193 | 3.0 | 6.0 | 0.00 | 0.00 | 0.00 | 31 | 1006.2 |
| 20260508211603 | 76 | 274 | 2.0 | 7.0 | 0.00 | 0.00 | 0.00 | 30 | 1006.3 |
| 20260508211036 | 77 | 270 | 4.0 | 9.0 | 0.00 | 0.00 | 0.00 | 28 | 1006.4 |
| 20260508210627 | 77 | 298 | 3.0 | 9.0 | 0.00 | 0.00 | 0.00 | 28 | 1006.4 |
| 20260508210105 | 77 | 226 | 3.0 | 7.0 | 0.00 | 0.00 | 0.00 | 27 | 1006.5 |
| 20260508205539 | 77 | 240 | 2.0 | 8.0 | 0.00 | 0.00 | 0.00 | 27 | 1006.5 |
| 20260508205034 | 77 | 294 | 2.0 | 6.0 | 0.00 | 0.00 | 0.00 | 29 | 1006.5 |
| 20260508204551 | 76 | 292 | 3.0 | 8.0 | 0.00 | 0.00 | 0.00 | 28 | 1006.7 |
| 20260508204044 | 76 | 227 | 2.0 | 8.0 | 0.00 | 0.00 | 0.00 | 28 | 1006.8 |
| 20260508203542 | 77 | 266 | 2.0 | 7.0 | 0.00 | 0.00 | 0.00 | 28 | 1006.8 |
| 20260508203043 | 76 | 293 | 4.0 | 6.0 | 0.00 | 0.00 | 0.00 | 30 | 1006.9 |
| 20260508202539 | 76 | 261 | 2.0 | 5.0 | 0.00 | 0.00 | 0.00 | 28 | 1006.9 |
| 20260508201538 | 77 | 282 | 3.0 | 7.0 | 0.00 | 0.00 | 0.00 | 27 | 1007.2 |
| 20260508201033 | 77 | 259 | 2.0 | 9.0 | 0.00 | 0.00 | 0.00 | 28 | 1007.3 |
| 20260508200558 | 76 | 204 | 5.0 | 9.0 | 0.00 | 0.00 | 0.00 | 27 | 1007.4 |
| 20260508200056 | 76 | 224 | 3.0 | 7.0 | 0.00 | 0.00 | 0.00 | 28 | 1007.4 |
| 20260508195550 | 76 | 286 | 2.0 | 8.0 | 0.00 | 0.00 | 0.00 | 27 | 1007.5 |
| 20260508195048 | 76 | 342 | 5.0 | 8.0 | 0.00 | 0.00 | 0.00 | 27 | 1007.5 |
| 20260508194543 | 76 | 25 | 2.0 | 7.0 | 0.00 | 0.00 | 0.00 | 29 | 1007.6 |
| 20260508194039 | 77 | 336 | 4.0 | 7.0 | 0.00 | 0.00 | 0.00 | 27 | 1007.7 |
| 20260508193535 | 77 | 359 | 4.0 | 7.0 | 0.00 | 0.00 | 0.00 | 25 | 1007.7 |
| 20260508193031 | 78 | 270 | 3.0 | 6.0 | 0.00 | 0.00 | 0.00 | 25 | 1007.7 |
| 20260508192547 | 78 | 334 | 2.0 | 6.0 | 0.00 | 0.00 | 0.00 | 27 | 1007.8 |
| 20260508192044 | 77 | 245 | 2.0 | 6.0 | 0.00 | 0.00 | 0.00 | 26 | 1007.8 |
| 20260508191539 | 77 | 328 | 3.0 | 6.0 | 0.00 | 0.00 | 0.00 | 26 | 1007.9 |
| 20260508191035 | 78 | 262 | 3.0 | 6.0 | 0.00 | 0.00 | 0.00 | 27 | 1007.9 |
| 20260508190624 | 77 | 352 | 2.0 | 6.0 | 0.00 | 0.00 | 0.00 | 29 | 1007.9 |
| 20260508185546 | 77 | 353 | 2.0 | 5.0 | 0.00 | 0.00 | 0.00 | 25 | 1008.0 |
| 20260508185041 | 77 | 354 | 2.0 | 5.0 | 0.00 | 0.00 | 0.00 | 25 | 1008.1 |
| 20260508184536 | 77 | 354 | 3.0 | 6.0 | 0.00 | 0.00 | 0.00 | 26 | 1008.0 |
| 20260508184032 | 76 | 8 | 3.0 | 5.0 | 0.00 | 0.00 | 0.00 | 25 | 1008.1 |
| 20260508183548 | 77 | 335 | 2.0 | 4.0 | 0.00 | 0.00 | 0.00 | 25 | 1008.3 |
| 20260508183044 | 76 | 248 | 1.0 | 4.0 | 0.00 | 0.00 | 0.00 | 28 | 1008.3 |
| 20260508182539 | 75 | 248 | 3.0 | 4.0 | 0.00 | 0.00 | 0.00 | 28 | 1008.3 |
| 20260508182056 | 75 | 311 | 1.0 | 4.0 | 0.00 | 0.00 | 0.00 | 24 | 1008.4 |
| 20260508181532 | 75 | 182 | 1.0 | 6.0 | 0.00 | 0.00 | 0.00 | 27 | 1008.4 |
| 20260508181047 | 74 | 183 | 2.0 | 7.0 | 0.00 | 0.00 | 0.00 | 27 | 1008.5 |
| 20260508180554 | 74 | 200 | 2.0 | 7.0 | 0.00 | 0.00 | 0.00 | 31 | 1008.5 |
| 20260508180033 | 74 | 280 | 3.0 | 7.0 | 0.00 | 0.00 | 0.00 | 28 | 1008.5 |
| 20260508175547 | 75 | 193 | 4.0 | 7.0 | 0.00 | 0.00 | 0.00 | 31 | 1008.5 |
| 20260508175105 | 74 | 200 | 4.0 | 7.0 | 0.00 | 0.00 | 0.00 | 30 | 1008.5 |
| 20260508174539 | 72 | 151 | 1.0 | 4.0 | 0.00 | 0.00 | 0.00 | 31 | 1008.6 |
| 20260508174036 | 72 | 181 | 2.0 | 3.0 | 0.00 | 0.00 | 0.00 | 32 | 1008.7 |
| 20260508173531 | 71 | 200 | 1.0 | 3.0 | 0.00 | 0.00 | 0.00 | 31 | 1008.7 |
| 20260508173048 | 71 | 200 | 2.0 | 3.0 | 0.00 | 0.00 | 0.00 | 32 | 1008.8 |
| 20260508172540 | 71 | 216 | 0.0 | 4.0 | 0.00 | 0.00 | 0.00 | 35 | 1008.9 |
| 20260508172040 | 71 | 215 | 0.0 | 4.0 | 0.00 | 0.00 | 0.00 | 34 | 1009.0 |
| 20260508171537 | 71 | 280 | 1.0 | 3.0 | 0.00 | 0.00 | 0.00 | 32 | 1009.0 |
| 20260508171034 | 71 | 280 | 2.0 | 4.0 | 0.00 | 0.00 | 0.00 | 33 | 1009.0 |
| 20260508170600 | 71 | 289 | 2.0 | 4.0 | 0.00 | 0.00 | 0.00 | 31 | 1009.0 |
| 20260508170039 | 71 | 255 | 2.0 | 3.0 | 0.00 | 0.00 | 0.00 | 31 | 1009.1 |
| 20260508165535 | 71 | 260 | 1.0 | 3.0 | 0.00 | 0.00 | 0.00 | 33 | 1009.1 |
| 20260508165052 | 71 | 308 | 1.0 | 5.0 | 0.00 | 0.00 | 0.00 | 33 | 1009.1 |
| 20260508164547 | 71 | 318 | 1.0 | 6.0 | 0.00 | 0.00 | 0.00 | 32 | 1009.0 |
| 20260508164043 | 71 | 318 | 3.0 | 6.0 | 0.00 | 0.00 | 0.00 | 33 | 1009.0 |
| 20260508163539 | 70 | 227 | 2.0 | 6.0 | 0.00 | 0.00 | 0.00 | 40 | 1009.1 |
| 20260508163055 | 70 | 222 | 2.0 | 6.0 | 0.00 | 0.00 | 0.00 | 39 | 1009.1 |
| 20260508162530 | 69 | 180 | 2.0 | 6.0 | 0.00 | 0.00 | 0.00 | 39 | 1009.1 |
| 20260508162047 | 68 | 221 | 2.0 | 5.0 | 0.00 | 0.00 | 0.00 | 40 | 1009.1 |
| 20260508161542 | 68 | 219 | 2.0 | 5.0 | 0.00 | 0.00 | 0.00 | 44 | 1009.1 |
| 20260508161059 | 67 | 183 | 1.0 | 6.0 | 0.00 | 0.00 | 0.00 | 44 | 1009.2 |
| 20260508160606 | 66 | 193 | 2.0 | 6.0 | 0.00 | 0.00 | 0.00 | 44 | 1009.3 |
| 20260508160145 | 66 | 190 | 3.0 | 6.0 | 0.00 | 0.00 | 0.00 | 45 | 1009.4 |
| 20260508155545 | 65 | 195 | 2.0 | 6.0 | 0.00 | 0.00 | 0.00 | 47 | 1009.4 |
| 20260508155042 | 65 | 215 | 3.0 | 5.0 | 0.00 | 0.00 | 0.00 | 48 | 1009.4 |
| 20260508154619 | 65 | 209 | 1.0 | 6.0 | 0.00 | 0.00 | 0.00 | 50 | 1009.4 |
| 20260508154031 | 64 | 196 | 2.0 | 6.0 | 0.00 | 0.00 | 0.00 | 51 | 1009.4 |
| 20260508153608 | 64 | 207 | 3.0 | 6.0 | 0.00 | 0.00 | 0.00 | 49 | 1009.4 |
| 20260508153042 | 64 | 191 | 3.0 | 6.0 | 0.00 | 0.00 | 0.00 | 47 | 1009.5 |
| 20260508152538 | 63 | 193 | 2.0 | 5.0 | 0.00 | 0.00 | 0.00 | 51 | 1009.5 |
| 20260508152036 | 62 | 192 | 1.0 | 4.0 | 0.00 | 0.00 | 0.00 | 53 | 1009.4 |
| 20260508151532 | 62 | 192 | 3.0 | 5.0 | 0.00 | 0.00 | 0.00 | 53 | 1009.4 |
| 20260508151031 | 62 | 193 | 3.0 | 5.0 | 0.00 | 0.00 | 0.00 | 53 | 1009.5 |
| 20260508150558 | 62 | 191 | 3.0 | 7.0 | 0.00 | 0.00 | 0.00 | 53 | 1009.5 |
| 20260508150038 | 62 | 191 | 4.0 | 7.0 | 0.00 | 0.00 | 0.00 | 52 | 1009.5 |
| 20260508145538 | 61 | 188 | 4.0 | 5.0 | 0.00 | 0.00 | 0.00 | 52 | 1009.5 |
| 20260508145036 | 61 | 202 | 3.0 | 5.0 | 0.00 | 0.00 | 0.00 | 53 | 1009.6 |
| 20260508144532 | 60 | 202 | 4.0 | 5.0 | 0.00 | 0.00 | 0.00 | 54 | 1009.6 |
| 20260508144030 | 60 | 203 | 2.0 | 5.0 | 0.00 | 0.00 | 0.00 | 54 | 1009.6 |
| 20260508143548 | 59 | 205 | 3.0 | 5.0 | 0.00 | 0.00 | 0.00 | 55 | 1009.7 |
| 20260508143108 | 59 | 205 | 1.0 | 4.0 | 0.00 | 0.00 | 0.00 | 54 | 1009.7 |
| 20260508142545 | 59 | 162 | 2.0 | 4.0 | 0.00 | 0.00 | 0.00 | 56 | 1009.7 |
| 20260508142042 | 59 | 156 | 0.0 | 4.0 | 0.00 | 0.00 | 0.00 | 54 | 1009.7 |
| 20260508141602 | 58 | 153 | 1.0 | 3.0 | 0.00 | 0.00 | 0.00 | 55 | 1009.6 |
| 20260508141037 | 58 | 151 | 1.0 | 3.0 | 0.00 | 0.00 | 0.00 | 57 | 1009.7 |
| 20260508140604 | 57 | 151 | 1.0 | 3.0 | 0.00 | 0.00 | 0.00 | 58 | 1009.6 |
| 20260508140043 | 56 | 149 | 1.0 | 3.0 | 0.00 | 0.00 | 0.00 | 59 | 1009.6 |
| 20260508135601 | 56 | 149 | 2.0 | 3.0 | 0.00 | 0.00 | 0.00 | 58 | 1009.7 |
| 20260508135039 | 55 | 149 | 1.0 | 2.0 | 0.00 | 0.00 | 0.00 | 61 | 1009.7 |
| 20260508134558 | 55 | 149 | 0.0 | 2.0 | 0.00 | 0.00 | 0.00 | 62 | 1009.8 |
| 20260508134034 | 54 | 149 | 1.0 | 2.0 | 0.00 | 0.00 | 0.00 | 63 | 1009.8 |
| 20260508133547 | 54 | 149 | 0.0 | 3.0 | 0.00 | 0.00 | 0.00 | 65 | 1009.9 |
| 20260508133041 | 54 | 149 | 1.0 | 3.0 | 0.00 | 0.00 | 0.00 | 66 | 1009.9 |
| 20260508132602 | 54 | 149 | 2.0 | 3.0 | 0.00 | 0.00 | 0.00 | 67 | 1009.9 |
| 20260508132037 | 54 | 148 | 2.0 | 3.0 | 0.00 | 0.00 | 0.00 | 72 | 1009.9 |
| 20260508131536 | 54 | 148 | 0.0 | 2.0 | 0.00 | 0.00 | 0.00 | 70 | 1009.7 |
| 20260508131038 | 54 | 148 | 0.0 | 0.0 | 0.00 | 0.00 | 0.00 | 69 | 1009.6 |
| 20260508130608 | 54 | 148 | 0.0 | 1.0 | 0.00 | 0.00 | 0.00 | 69 | 1009.5 |
| 20260508130047 | 54 | 148 | 0.0 | 1.0 | 0.00 | 0.00 | 0.00 | 68 | 1009.5 |
| 20260508125545 | 54 | 148 | 0.0 | 1.0 | 0.00 | 0.00 | 0.00 | 70 | 1009.4 |
| 20260508125042 | 54 | 148 | 0.0 | 1.0 | 0.00 | 0.00 | 0.00 | 69 | 1009.4 |
| 20260508124540 | 54 | 148 | 0.0 | 0.0 | 0.00 | 0.00 | 0.00 | 68 | 1009.5 |
| 20260508124036 | 54 | 148 | 0.0 | 2.0 | 0.00 | 0.00 | 0.00 | 68 | 1009.4 |
| 20260508123535 | 54 | 148 | 1.0 | 2.0 | 0.00 | 0.00 | 0.00 | 67 | 1009.4 |
| 20260508123053 | 53 | 148 | 1.0 | 3.0 | 0.00 | 0.00 | 0.00 | 66 | 1009.2 |
| 20260508122550 | 53 | 148 | 2.0 | 4.0 | 0.00 | 0.00 | 0.00 | 65 | 1009.2 |
| 20260508122046 | 52 | 148 | 3.0 | 4.0 | 0.00 | 0.00 | 0.00 | 70 | 1009.2 |
| 20260508121544 | 52 | 95 | 2.0 | 4.0 | 0.00 | 0.00 | 0.00 | 68 | 1009.3 |
| 20260508121042 | 52 | 314 | 1.0 | 5.0 | 0.00 | 0.00 | 0.00 | 70 | 1009.4 |
| 20260508120549 | 52 | 97 | 4.0 | 5.0 | 0.00 | 0.00 | 0.00 | 70 | 1009.0 |
| 20260508120048 | 52 | 321 | 0.0 | 0.0 | 0.00 | 0.00 | 0.00 | 65 | 1009.5 |
| 20260508115546 | 51 | 321 | 0.0 | 0.0 | 0.00 | 0.00 | 0.00 | 63 | 1009.6 |
| 20260508115045 | 51 | 321 | 0.0 | 0.0 | 0.00 | 0.00 | 0.00 | 64 | 1009.6 |
| 20260508114543 | 51 | 321 | 0.0 | 0.0 | 0.00 | 0.00 | 0.00 | 63 | 1009.4 |
| 20260508114042 | 51 | 321 | 0.0 | 0.0 | 0.00 | 0.00 | 0.00 | 64 | 1009.2 |
| 20260508113539 | 51 | 321 | 0.0 | 0.0 | 0.00 | 0.00 | 0.00 | 64 | 1009.2 |
| 20260508113056 | 51 | 321 | 0.0 | 0.0 | 0.00 | 0.00 | 0.00 | 63 | 1009.2 |
| 20260508112544 | 51 | 321 | 0.0 | 0.0 | 0.00 | 0.00 | 0.00 | 62 | 1009.1 |
| 20260508112041 | 51 | 321 | 0.0 | 0.0 | 0.00 | 0.00 | 0.00 | 61 | 1009.1 |
| 20260508111538 | 51 | 321 | 0.0 | 1.0 | 0.00 | 0.00 | 0.00 | 61 | 1009.1 |
| 20260508111055 | 51 | 321 | 0.0 | 1.0 | 0.00 | 0.00 | 0.00 | 59 | 1009.2 |
| 20260508110600 | 52 | 321 | 0.0 | 2.0 | 0.00 | 0.00 | 0.00 | 58 | 1009.4 |
| 20260508110039 | 52 | 321 | 1.0 | 2.0 | 0.00 | 0.00 | 0.00 | 58 | 1009.4 |
| 20260508105531 | 52 | 321 | 0.0 | 3.0 | 0.00 | 0.00 | 0.00 | 57 | 1009.1 |
| 20260508105048 | 52 | 321 | 1.0 | 3.0 | 0.00 | 0.00 | 0.00 | 57 | 1009.4 |
| 20260508104545 | 52 | 321 | 1.0 | 2.0 | 0.00 | 0.00 | 0.00 | 57 | 1009.3 |
| 20260508104042 | 52 | 321 | 0.0 | 3.0 | 0.00 | 0.00 | 0.00 | 55 | 1009.1 |
| 20260508103541 | 52 | 321 | 2.0 | 3.0 | 0.00 | 0.00 | 0.00 | 53 | 1009.0 |
| 20260508103038 | 53 | 321 | 1.0 | 2.0 | 0.00 | 0.00 | 0.00 | 53 | 1009.5 |
| 20260508102536 | 53 | 321 | 1.0 | 2.0 | 0.00 | 0.00 | 0.00 | 52 | 1009.6 |
| 20260508102031 | 53 | 321 | 1.0 | 5.0 | 0.00 | 0.00 | 0.00 | 51 | 1009.6 |
| 20260508101533 | 53 | 321 | 1.0 | 5.0 | 0.00 | 0.00 | 0.00 | 51 | 1009.8 |
| 20260508101052 | 53 | 331 | 3.0 | 4.0 | 0.00 | 0.00 | 0.00 | 50 | 1009.8 |
| 20260508100600 | 53 | 331 | 3.0 | 4.0 | 0.00 | 0.00 | 0.00 | 52 | 1009.7 |
| 20260508100038 | 53 | 331 | 1.0 | 2.0 | 0.00 | 0.00 | 0.00 | 52 | 1009.5 |
| 20260508095532 | 53 | 331 | 1.0 | 2.0 | 0.00 | 0.00 | 0.00 | 53 | 1009.6 |
| 20260508095050 | 53 | 331 | 1.0 | 2.0 | 0.00 | 0.00 | 0.00 | 53 | 1009.9 |
| 20260508094547 | 53 | 331 | 0.0 | 3.0 | 0.00 | 0.00 | 0.00 | 52 | 1009.9 |
| 20260508094106 | 53 | 331 | 1.0 | 3.0 | 0.00 | 0.00 | 0.00 | 52 | 1009.9 |
| 20260508093604 | 53 | 331 | 2.0 | 3.0 | 0.00 | 0.00 | 0.00 | 52 | 1009.9 |
| 20260508092547 | 53 | 331 | 0.0 | 2.0 | 0.00 | 0.00 | 0.00 | 53 | 1009.9 |
| 20260508092044 | 53 | 331 | 0.0 | 1.0 | 0.00 | 0.00 | 0.00 | 53 | 1009.8 |
| 20260508091542 | 54 | 331 | 0.0 | 1.0 | 0.00 | 0.00 | 0.00 | 51 | 1009.9 |
| 20260508091040 | 54 | 331 | 1.0 | 2.0 | 0.00 | 0.00 | 0.00 | 50 | 1009.9 |
| 20260508090608 | 54 | 331 | 1.0 | 2.0 | 0.00 | 0.00 | 0.00 | 49 | 1009.8 |
| 20260508090046 | 55 | 331 | 0.0 | 2.0 | 0.00 | 0.00 | 0.00 | 48 | 1009.7 |
| 20260508085545 | 55 | 331 | 1.0 | 2.0 | 0.00 | 0.00 | 0.00 | 49 | 1009.8 |
| 20260508085039 | 55 | 331 | 1.0 | 2.0 | 0.00 | 0.00 | 0.00 | 49 | 1009.9 |
| 20260508084536 | 56 | 331 | 0.0 | 2.0 | 0.00 | 0.00 | 0.00 | 48 | 1009.6 |
| 20260508084032 | 56 | 331 | 0.0 | 2.0 | 0.00 | 0.00 | 0.00 | 45 | 1009.7 |
| 20260508083535 | 56 | 331 | 0.0 | 2.0 | 0.00 | 0.00 | 0.00 | 46 | 1009.6 |
| 20260508083032 | 56 | 331 | 0.0 | 2.0 | 0.00 | 0.00 | 0.00 | 46 | 1009.8 |
| 20260508082551 | 56 | 331 | 1.0 | 2.0 | 0.00 | 0.00 | 0.00 | 46 | 1009.9 |
| 20260508082046 | 56 | 331 | 0.0 | 1.0 | 0.00 | 0.00 | 0.00 | 46 | 1010.0 |
| 20260508081543 | 56 | 331 | 0.0 | 1.0 | 0.00 | 0.00 | 0.00 | 45 | 1010.1 |
| 20260508081040 | 56 | 331 | 0.0 | 3.0 | 0.00 | 0.00 | 0.00 | 45 | 1010.0 |
| 20260508080548 | 56 | 331 | 2.0 | 3.0 | 0.00 | 0.00 | 0.00 | 46 | 1009.8 |
| 20260508080049 | 57 | 331 | 0.0 | 1.0 | 0.00 | 0.00 | 0.00 | 47 | 1010.2 |
| 20260508075546 | 57 | 331 | 0.0 | 1.0 | 0.00 | 0.00 | 0.00 | 47 | 1010.3 |
| 20260508075106 | 57 | 331 | 1.0 | 1.0 | 0.00 | 0.00 | 0.00 | 44 | 1010.2 |
| 20260508074543 | 57 | 331 | 0.0 | 2.0 | 0.00 | 0.00 | 0.00 | 45 | 1010.3 |
| 20260508074041 | 57 | 331 | 1.0 | 2.0 | 0.00 | 0.00 | 0.00 | 44 | 1010.3 |
| 20260508073539 | 57 | 331 | 1.0 | 3.0 | 0.00 | 0.00 | 0.00 | 43 | 1010.1 |
| 20260508073057 | 58 | 331 | 1.0 | 3.0 | 0.00 | 0.00 | 0.00 | 42 | 1010.1 |
| 20260508072535 | 58 | 331 | 0.0 | 1.0 | 0.00 | 0.00 | 0.00 | 42 | 1009.9 |
| 20260508072112 | 58 | 331 | 0.0 | 2.0 | 0.00 | 0.00 | 0.00 | 41 | 1009.8 |
| 20260508071549 | 58 | 331 | 1.0 | 2.0 | 0.00 | 0.00 | 0.00 | 40 | 1009.9 |
| 20260508071045 | 58 | 331 | 0.0 | 2.0 | 0.00 | 0.00 | 0.00 | 42 | 1009.9 |